Terminal Aerodrome Forecast
Issued by NWS

Home | Current Version | Previous Version | Text Only | Print | Product List | Glossary On
Versions: 1 2 3 4 5 6 7 8 9 10 11 12
000
FTUS42 TJSJ 171700
TAFKPK
TAF
TKPK 171733Z 1718/1818 05010KT P6SM FEW020
      AMD NOT SKED 1802/1811=

USA.gov is the U.S. government's official web portal to all federal, state and local government web resources and services.